Monument Pass, CO

3:51 PM MST on January 22, 2018 (GMT -0700)
Monument Pass

Weather History for KMNH - April, 2013

Change the Weather History Date:

Wednesday, April 10, 2013

  Actual Average Record
Temperature  
Mean Temperature 10 °F -  
Max Temperature 21 °F - 71 °F (2006)
Min Temperature -2 °F - -2 °F (2013)
Degree Days  
Heating Degree Days 56    
Month to date heating degree days  
Cooling Degree Days 0    
Month to date cooling degree days  
Moisture  
Dew Point 6 °F    
Average Humidity 82    
Maximum Humidity 92    
Minimum Humidity 67    
Precipitation  
Precipitation 0.00 in - 0.35 in (2004)
Sea Level Pressure  
Sea Level Pressure 29.93 in    
Wind  
Wind Speed 8 mph (NNW)    
Max Wind Speed 15 mph    
Max Gust Speed 17 mph    
Visibility 9 miles    
Events Snow    
T = Trace of Precipitation, MM = Missing Value Source: NWS Daily Summary

Daily Weather History Graph

Daily Weather History Graph

Search for Another Location

Airport or City:

Trip Planner

Search our weather history database for the weather conditions in past years. The results will help you decide how hot, cold, wet, or windy it might be!

Date:

Astronomy

Apr. 10, 2013 Rise Set
Actual Time 6:28 AM MDT 7:31 PM MDT
Civil Twilight 6:01 AM MDT 7:58 PM MDT
Nautical Twilight 5:28 AM MDT 8:31 PM MDT
Astronomical Twilight 4:54 AM MDT 9:05 PM MDT
Moon 6:26 AM MDT (4/10) 8:09 PM MDT (4/10)
Length of Visible Light 13h 57m
Length of Day
13h 02m
New Moon, 0% of the Moon is Illuminated
Apr 10
New Moon
Apr 18
First Quarter
Apr 25
Full
May 2
Last Quarter
May 9
New

Hourly Weather History & Observations

Time (MDT) Temp. Windchill Dew Point Humidity Pressure Visibility Wind Dir Wind Speed Gust Speed Precip Events Conditions
12:14 AM 3.2 °F -12.2 °F 1.4 °F 92% 29.99 in 5.0 mi NNW 10.4 mph - N/A Snow Light Snow
12:34 AM 3.2 °F -11.3 °F 1.4 °F 92% 30.00 in 4.0 mi North 9.2 mph - N/A Snow Light Snow
12:53 AM 3.2 °F -11.3 °F 1.4 °F 92% 29.99 in 2.0 mi North 9.2 mph - N/A Snow Light Snow
1:14 AM 3.2 °F -11.3 °F 1.4 °F 92% 29.99 in 5.0 mi North 9.2 mph - N/A Snow Light Snow
1:34 AM 3.2 °F -11.3 °F 1.4 °F 92% 30.00 in 4.0 mi North 9.2 mph - N/A Snow Light Snow
1:53 AM 3.2 °F -10.3 °F 1.4 °F 92% 29.99 in 3.0 mi NNW 8.1 mph - N/A Snow Light Snow
2:14 AM 3.2 °F -13.9 °F 1.4 °F 92% 29.98 in 5.0 mi North 12.7 mph 16.1 mph N/A Snow Light Snow
2:34 AM 3.2 °F -12.2 °F -0.4 °F 85% 29.97 in 5.0 mi NNW 10.4 mph - N/A Snow Light Snow
2:54 AM 3.2 °F -13.9 °F -0.4 °F 85% 29.96 in 10.0 mi NNW 12.7 mph - N/A   Mostly Cloudy
3:14 AM 1.4 °F -11.3 °F -0.4 °F 92% 29.96 in 7.0 mi NW 6.9 mph - N/A Snow Light Snow
3:34 AM 1.4 °F -11.3 °F -2.2 °F 85% 29.97 in 7.0 mi NNW 6.9 mph - N/A Snow Light Snow
3:54 AM 1.4 °F -8.3 °F -0.4 °F 92% 29.98 in 3.0 mi North 4.6 mph - N/A Snow Light Snow
4:14 AM 1.4 °F -12.5 °F -0.4 °F 92% 29.97 in 4.0 mi North 8.1 mph - N/A Snow Light Snow
4:34 AM 1.4 °F -12.5 °F -0.4 °F 92% 29.96 in 7.0 mi North 8.1 mph - N/A   Mostly Cloudy
4:54 AM 1.4 °F -8.3 °F -0.4 °F 92% 29.95 in 10.0 mi NNW 4.6 mph - N/A   Scattered Clouds
5:14 AM 1.4 °F -11.3 °F -2.2 °F 85% 29.96 in 10.0 mi North 6.9 mph - N/A   Mostly Cloudy
5:34 AM 1.4 °F -9.9 °F -2.2 °F 85% 29.95 in 10.0 mi NNW 5.8 mph - N/A   Scattered Clouds
5:54 AM -2.2 °F -15.6 °F -5.8 °F 85% 29.95 in 10.0 mi WNW 6.9 mph - N/A Snow Light Snow
6:13 AM -2.2 °F -12.5 °F -5.8 °F 85% 29.94 in 10.0 mi WNW 4.6 mph - N/A   Clear
6:34 AM -2.2 °F -15.6 °F -5.8 °F 85% 29.95 in 10.0 mi WNW 6.9 mph - N/A   Clear
6:54 AM -2.2 °F -14.2 °F -5.8 °F 85% 29.95 in 10.0 mi North 5.8 mph - N/A   Clear
7:14 AM 1.4 °F -9.9 °F -0.4 °F 92% 29.95 in 10.0 mi North 5.8 mph - N/A   Clear
7:34 AM 3.2 °F -9.1 °F 1.4 °F 92% 29.97 in 10.0 mi North 6.9 mph - N/A   Clear
7:54 AM 5.0 °F -6.9 °F 1.4 °F 85% 29.96 in 10.0 mi North 6.9 mph - N/A   Clear
8:14 AM 5.0 °F -8.1 °F 3.2 °F 92% 29.97 in 10.0 mi NNE 8.1 mph - N/A   Clear
8:34 AM 6.8 °F -5.9 °F 3.2 °F 85% 29.97 in 10.0 mi North 8.1 mph - N/A   Clear
8:53 AM 8.6 °F -3.7 °F 3.2 °F 79% 29.97 in 10.0 mi NNE 8.1 mph - N/A   Clear
9:14 AM 10.4 °F -0.4 °F 3.2 °F 73% 29.96 in 10.0 mi North 6.9 mph - N/A   Clear
9:34 AM 12.2 °F 4.3 °F 5.0 °F 73% 29.97 in 10.0 mi NNE 4.6 mph - N/A   Clear
9:54 AM 12.2 °F 4.3 °F 5.0 °F 73% 29.97 in 10.0 mi North 4.6 mph - N/A Snow Light Snow
10:13 AM 12.2 °F 2.9 °F 5.0 °F 73% 29.95 in 10.0 mi NNW 5.8 mph - N/A   Clear
10:34 AM 14.0 °F 5.1 °F 5.0 °F 67% 29.95 in 10.0 mi NNW 5.8 mph - N/A   Clear
11:14 AM 17.6 °F 6.4 °F 10.4 °F 73% 29.94 in 10.0 mi WNW 9.2 mph - N/A   Clear
11:34 AM 17.6 °F 6.4 °F 8.6 °F 68% 29.94 in 10.0 mi NW 9.2 mph - N/A   Clear
12:14 PM 19.4 °F 9.5 °F 10.4 °F 68% 29.94 in 10.0 mi North 8.1 mph - N/A   Clear
12:34 PM 19.4 °F 6.6 °F 10.4 °F 68% 29.93 in 10.0 mi North 12.7 mph - N/A   Mostly Cloudy
1:14 PM 19.4 °F 5.5 °F 10.4 °F 68% 29.92 in 10.0 mi North 15.0 mph - N/A   Clear
1:34 PM 21.2 °F 8.3 °F 12.2 °F 68% 29.92 in 10.0 mi North 13.8 mph - N/A   Clear
1:54 PM 21.2 °F 9.5 °F 12.2 °F 68% 29.92 in 10.0 mi North 11.5 mph 16.1 mph N/A   Scattered Clouds
2:14 PM 21.2 °F 9.5 °F 12.2 °F 68% 29.92 in 10.0 mi North 11.5 mph 17.3 mph N/A   Mostly Cloudy
2:34 PM 19.4 °F 7.9 °F 12.2 °F 74% 29.92 in 10.0 mi NNE 10.4 mph - N/A   Overcast
2:54 PM 19.4 °F 7.2 °F 12.2 °F 74% 29.92 in 5.0 mi North 11.5 mph - N/A   Haze
3:13 PM 19.4 °F 6.0 °F 12.2 °F 74% 29.91 in 10.0 mi North 13.8 mph - N/A   Scattered Clouds
3:34 PM 17.6 °F 5.0 °F 10.4 °F 73% 29.91 in 10.0 mi North 11.5 mph 16.1 mph N/A   Clear
3:54 PM 19.4 °F 8.6 °F 12.2 °F 74% 29.91 in 10.0 mi NNE 9.2 mph - N/A   Clear
4:13 PM 19.4 °F 9.5 °F 12.2 °F 74% 29.90 in 10.0 mi North 8.1 mph - N/A   Scattered Clouds
4:34 PM 19.4 °F 10.4 °F 12.2 °F 74% 29.89 in 10.0 mi North 6.9 mph - N/A   Mostly Cloudy
4:54 PM 19.4 °F 12.8 °F 12.2 °F 74% 29.89 in 10.0 mi NE 4.6 mph - N/A Snow Light Snow
5:14 PM 17.6 °F 8.2 °F 12.2 °F 79% 29.89 in 10.0 mi NNE 6.9 mph - N/A   Clear
5:34 PM 17.6 °F 8.2 °F 12.2 °F 79% 29.89 in 10.0 mi North 6.9 mph - N/A   Scattered Clouds
5:54 PM 17.6 °F 10.7 °F 12.2 °F 79% 29.89 in 10.0 mi NE 4.6 mph - N/A   Scattered Clouds
6:14 PM 17.6 °F 12.3 °F 12.2 °F 79% 29.89 in 10.0 mi NNE 3.5 mph - N/A Snow Light Snow
6:33 PM 15.8 °F - 12.2 °F 86% 29.87 in 10.0 mi Calm Calm - N/A   Scattered Clouds
6:54 PM 15.8 °F - 10.4 °F 79% 29.87 in 10.0 mi Calm Calm - N/A   Scattered Clouds
7:14 PM 15.8 °F - 12.2 °F 86% 29.87 in 10.0 mi Calm Calm - N/A   Scattered Clouds
7:34 PM 14.0 °F 6.5 °F 10.4 °F 86% 29.87 in 10.0 mi WSW 4.6 mph - N/A   Clear
7:53 PM 14.0 °F 3.9 °F 10.4 °F 86% 29.87 in 10.0 mi SW 6.9 mph - N/A   Clear
8:14 PM 14.0 °F 2.9 °F 10.4 °F 86% 29.87 in 10.0 mi SSW 8.1 mph - N/A   Clear
8:34 PM 12.2 °F 4.3 °F 10.4 °F 92% 29.87 in 10.0 mi SSW 4.6 mph - N/A   Clear
8:54 PM 14.0 °F 8.2 °F 10.4 °F 86% 29.87 in 10.0 mi SW 3.5 mph - N/A   Clear
9:14 PM 14.0 °F 5.1 °F 10.4 °F 86% 29.88 in 10.0 mi SSW 5.8 mph - N/A   Clear
9:34 PM 14.0 °F 5.1 °F 10.4 °F 86% 29.88 in 10.0 mi SSW 5.8 mph - N/A   Clear
9:54 PM 14.0 °F 3.9 °F 10.4 °F 86% 29.87 in 10.0 mi SSW 6.9 mph - N/A   Clear
10:14 PM 14.0 °F 2.0 °F 10.4 °F 86% 29.86 in 10.0 mi SSW 9.2 mph - N/A   Clear
10:34 PM 17.6 °F 5.0 °F 12.2 °F 79% 29.85 in 10.0 mi SSW 11.5 mph - N/A   Clear
10:54 PM 17.6 °F 4.3 °F 14.0 °F 86% 29.84 in 10.0 mi SSW 12.7 mph - N/A   Clear
11:14 PM 17.6 °F 6.4 °F 12.2 °F 79% 29.84 in 10.0 mi SSW 9.2 mph - N/A   Clear
11:34 PM 17.6 °F 4.3 °F 12.2 °F 79% 29.83 in 10.0 mi SW 12.7 mph - N/A   Clear
11:54 PM 17.6 °F 3.7 °F 12.2 °F 79% 29.83 in 10.0 mi SW 13.8 mph - N/A   Clear